Time,TemperatureF,DewpointF,PressureIn,WindDirection,WindDirectionDegrees,WindSpeedMPH,WindSpeedGustMPH,Humidity,HourlyPrecipIn,Conditions,Clouds,dailyrainin,SoftwareType,DateUTC
2013-02-10 00:07:00,43.6,43.6,30.23,NNW,333,0.0,0.0,100,0.00,,,0.00,Wunderground v.1.15,2013-02-10 08:07:00,
2013-02-10 00:17:00,43.2,43.2,30.23,North,359,0.0,0.0,100,0.00,,,0.00,Wunderground v.1.15,2013-02-10 08:17:00,
2013-02-10 00:27:00,42.9,42.9,30.23,North,359,0.0,0.0,100,0.00,,,0.00,Wunderground v.1.15,2013-02-10 08:27:00,
2013-02-10 00:32:00,42.9,42.9,30.24,North,359,0.0,0.0,100,0.00,,,0.00,Wunderground v.1.15,2013-02-10 08:32:00,
2013-02-10 00:42:00,42.8,42.8,30.24,North,359,0.0,0.0,100,0.00,,,0.00,Wunderground v.1.15,2013-02-10 08:42:00,
2013-02-10 00:47:00,42.8,42.8,30.23,North,359,0.0,0.0,100,0.00,,,0.00,Wunderground v.1.15,2013-02-10 08:47:00,
2013-02-10 00:57:00,42.6,42.6,30.23,North,359,0.0,0.0,100,0.00,,,0.00,Wunderground v.1.15,2013-02-10 08:57:00,
2013-02-10 01:07:00,42.5,42.5,30.24,North,359,0.0,0.0,100,0.00,,,0.00,Wunderground v.1.15,2013-02-10 09:07:00,
2013-02-10 01:17:00,42.3,42.3,30.24,North,359,0.0,0.0,100,0.00,,,0.00,Wunderground v.1.15,2013-02-10 09:17:00,
2013-02-10 01:27:00,41.8,41.8,30.24,North,359,0.0,0.0,100,0.00,,,0.00,Wunderground v.1.15,2013-02-10 09:27:00,
2013-02-10 01:32:00,41.9,41.9,30.24,North,359,0.0,0.0,100,0.00,,,0.00,Wunderground v.1.15,2013-02-10 09:32:00,
2013-02-10 01:42:00,41.5,41.5,30.24,North,359,0.0,0.0,100,0.00,,,0.00,Wunderground v.1.15,2013-02-10 09:42:00,
2013-02-10 01:47:00,41.3,41.3,30.24,North,359,0.0,0.0,100,0.00,,,0.00,Wunderground v.1.15,2013-02-10 09:47:00,
2013-02-10 01:57:00,41.6,41.6,30.24,North,359,0.0,0.0,100,0.00,,,0.00,Wunderground v.1.15,2013-02-10 09:57:00,
2013-02-10 02:07:00,41.8,41.8,30.24,North,359,0.0,0.0,100,0.00,,,0.00,Wunderground v.1.15,2013-02-10 10:07:00,
2013-02-10 02:17:00,41.8,41.8,30.25,North,359,0.0,0.0,100,0.00,,,0.00,Wunderground v.1.15,2013-02-10 10:17:00,
2013-02-10 02:22:00,41.8,41.8,30.25,North,359,0.0,0.0,100,0.00,,,0.00,Wunderground v.1.15,2013-02-10 10:22:00,
2013-02-10 02:32:00,41.6,41.6,30.25,North,359,0.0,0.0,100,0.00,,,0.00,Wunderground v.1.15,2013-02-10 10:32:00,
2013-02-10 02:42:00,41.3,41.3,30.25,North,359,0.0,0.0,100,0.00,,,0.00,Wunderground v.1.15,2013-02-10 10:42:00,
2013-02-10 02:47:00,41.3,41.3,30.25,North,359,0.0,0.0,100,0.00,,,0.00,Wunderground v.1.15,2013-02-10 10:47:00,
2013-02-10 02:57:00,41.5,41.5,30.25,North,359,0.0,0.0,100,0.00,,,0.00,Wunderground v.1.15,2013-02-10 10:57:00,
2013-02-10 03:02:00,41.3,41.3,30.25,North,359,0.0,0.0,100,0.00,,,0.00,Wunderground v.1.15,2013-02-10 11:02:00,
2013-02-10 03:07:00,41.2,41.2,30.25,North,359,0.0,0.0,100,0.00,,,0.00,Wunderground v.1.15,2013-02-10 11:07:00,
2013-02-10 03:17:00,40.9,40.9,30.25,North,359,0.0,0.0,100,0.00,,,0.00,Wunderground v.1.15,2013-02-10 11:17:00,
2013-02-10 03:22:00,40.8,40.8,30.25,North,359,0.0,0.0,100,0.00,,,0.00,Wunderground v.1.15,2013-02-10 11:22:00,
2013-02-10 03:32:00,40.8,40.8,30.25,North,359,0.0,0.0,100,0.00,,,0.00,Wunderground v.1.15,2013-02-10 11:32:00,
2013-02-10 03:42:00,40.8,40.8,30.25,North,359,0.0,0.0,100,0.00,,,0.00,Wunderground v.1.15,2013-02-10 11:42:00,
2013-02-10 03:47:00,40.8,40.8,30.24,North,359,0.0,0.0,100,0.00,,,0.00,Wunderground v.1.15,2013-02-10 11:47:00,
2013-02-10 03:57:00,40.8,40.8,30.24,North,359,0.0,0.0,100,0.00,,,0.00,Wunderground v.1.15,2013-02-10 11:57:00,
2013-02-10 04:02:00,40.8,40.8,30.25,North,359,0.0,0.0,100,0.00,,,0.00,Wunderground v.1.15,2013-02-10 12:02:00,
2013-02-10 04:07:00,40.6,40.6,30.25,North,359,0.0,0.0,100,0.00,,,0.00,Wunderground v.1.15,2013-02-10 12:07:00,
2013-02-10 04:17:00,40.5,40.5,30.25,North,359,0.0,0.0,100,0.00,,,0.00,Wunderground v.1.15,2013-02-10 12:17:00,
2013-02-10 04:22:00,40.2,40.2,30.25,North,359,0.0,0.0,100,0.00,,,0.00,Wunderground v.1.15,2013-02-10 12:22:00,
2013-02-10 04:32:00,39.9,39.9,30.25,North,359,0.0,0.0,100,0.00,,,0.00,Wunderground v.1.15,2013-02-10 12:32:00,
2013-02-10 04:42:00,39.6,39.6,30.25,North,359,0.0,0.0,100,0.00,,,0.00,Wunderground v.1.15,2013-02-10 12:42:00,
2013-02-10 04:47:00,39.5,39.5,30.25,North,359,0.0,0.0,100,0.00,,,0.00,Wunderground v.1.15,2013-02-10 12:47:00,
2013-02-10 04:57:00,39.3,39.3,30.25,North,359,0.0,0.0,100,0.00,,,0.00,Wunderground v.1.15,2013-02-10 12:57:00,
2013-02-10 05:02:00,39.1,39.1,30.25,North,359,0.0,0.0,100,0.00,,,0.00,Wunderground v.1.15,2013-02-10 13:02:00,
2013-02-10 05:07:00,38.9,38.9,30.25,North,359,0.0,0.0,100,0.00,,,0.00,Wunderground v.1.15,2013-02-10 13:07:00,
2013-02-10 05:17:00,38.8,38.8,30.26,North,359,0.0,0.0,100,0.00,,,0.00,Wunderground v.1.15,2013-02-10 13:17:00,
2013-02-10 05:22:00,38.8,38.8,30.26,North,359,0.0,0.0,100,0.00,,,0.00,Wunderground v.1.15,2013-02-10 13:22:00,
2013-02-10 05:32:00,38.5,38.5,30.26,North,359,0.0,0.0,100,0.00,,,0.00,Wunderground v.1.15,2013-02-10 13:32:00,
2013-02-10 05:42:00,38.3,38.3,30.26,North,359,0.0,0.0,100,0.00,,,0.00,Wunderground v.1.15,2013-02-10 13:42:00,
2013-02-10 05:47:00,38.6,38.6,30.26,North,359,0.0,0.0,100,0.00,,,0.00,Wunderground v.1.15,2013-02-10 13:47:00,
2013-02-10 05:57:00,38.6,38.6,30.26,North,359,0.0,0.0,100,0.00,,,0.00,Wunderground v.1.15,2013-02-10 13:57:00,
2013-02-10 06:02:00,38.5,38.5,30.26,North,359,0.0,0.0,100,0.00,,,0.00,Wunderground v.1.15,2013-02-10 14:02:00,
2013-02-10 06:07:00,38.3,38.3,30.26,North,359,0.0,0.0,100,0.00,,,0.00,Wunderground v.1.15,2013-02-10 14:07:00,
2013-02-10 06:17:00,38.2,38.2,30.26,North,359,0.0,0.0,100,0.00,,,0.00,Wunderground v.1.15,2013-02-10 14:17:00,
2013-02-10 06:22:00,37.9,37.9,30.26,North,359,0.0,0.0,100,0.00,,,0.00,Wunderground v.1.15,2013-02-10 14:22:00,
2013-02-10 06:32:00,37.3,37.3,30.26,North,359,0.0,0.0,100,0.00,,,0.00,Wunderground v.1.15,2013-02-10 14:32:00,
2013-02-10 06:42:00,37.2,37.2,30.26,North,359,0.0,0.0,100,0.00,,,0.00,Wunderground v.1.15,2013-02-10 14:42:00,
2013-02-10 06:47:00,37.0,37.0,30.26,North,359,0.0,0.0,100,0.00,,,0.00,Wunderground v.1.15,2013-02-10 14:47:00,
2013-02-10 06:57:00,36.8,36.8,30.26,North,359,0.0,0.0,100,0.00,,,0.00,Wunderground v.1.15,2013-02-10 14:57:00,
2013-02-10 07:02:00,36.6,36.6,30.27,North,359,0.0,0.0,100,0.00,,,0.00,Wunderground v.1.15,2013-02-10 15:02:00,
2013-02-10 07:12:00,36.5,36.5,30.27,North,359,0.0,0.0,100,0.00,,,0.00,Wunderground v.1.15,2013-02-10 15:12:00,
2013-02-10 07:17:00,36.3,36.3,30.28,North,359,0.0,0.0,100,0.00,,,0.00,Wunderground v.1.15,2013-02-10 15:17:00,
2013-02-10 07:27:00,36.5,36.5,30.28,North,359,0.0,0.0,100,0.00,,,0.00,Wunderground v.1.15,2013-02-10 15:27:00,
2013-02-10 07:37:00,36.6,36.6,30.28,North,359,0.0,0.0,100,0.00,,,0.00,Wunderground v.1.15,2013-02-10 15:37:00,
2013-02-10 07:42:00,36.8,36.8,30.28,North,359,0.0,0.0,100,0.00,,,0.00,Wunderground v.1.15,2013-02-10 15:42:00,
2013-02-10 07:52:00,36.9,36.9,30.28,North,359,0.0,0.0,100,0.00,,,0.00,Wunderground v.1.15,2013-02-10 15:52:00,
2013-02-10 07:57:00,37.0,37.0,30.28,North,359,0.0,0.0,100,0.00,,,0.00,Wunderground v.1.15,2013-02-10 15:57:00,
2013-02-10 08:07:00,37.2,37.2,30.28,North,359,0.0,0.0,100,0.00,,,0.00,Wunderground v.1.15,2013-02-10 16:07:00,
2013-02-10 08:12:00,37.3,37.3,30.28,North,359,0.0,0.0,100,0.00,,,0.00,Wunderground v.1.15,2013-02-10 16:12:00,
2013-02-10 08:22:00,37.6,37.6,30.29,North,359,0.0,0.0,100,0.00,,,0.00,Wunderground v.1.15,2013-02-10 16:22:00,
2013-02-10 08:27:00,37.6,37.6,30.29,North,359,0.0,0.0,100,0.00,,,0.00,Wunderground v.1.15,2013-02-10 16:27:00,
2013-02-10 08:37:00,37.9,37.9,30.29,North,359,0.0,0.0,100,0.00,,,0.00,Wunderground v.1.15,2013-02-10 16:37:00,
2013-02-10 08:42:00,38.0,38.0,30.29,North,359,0.0,0.0,100,0.00,,,0.00,Wunderground v.1.15,2013-02-10 16:42:00,
2013-02-10 08:52:00,38.5,38.5,30.29,North,359,0.0,0.0,100,0.00,,,0.00,Wunderground v.1.15,2013-02-10 16:52:00,
2013-02-10 08:57:00,38.6,38.6,30.29,North,359,0.0,0.0,100,0.00,,,0.00,Wunderground v.1.15,2013-02-10 16:57:00,
2013-02-10 09:07:00,38.8,38.8,30.29,North,359,0.0,0.0,100,0.00,,,0.00,Wunderground v.1.15,2013-02-10 17:07:00,
2013-02-10 09:12:00,39.1,39.1,30.29,North,359,0.0,0.0,100,0.00,,,0.00,Wunderground v.1.15,2013-02-10 17:12:00,
2013-02-10 09:22:00,39.3,39.3,30.28,North,359,0.0,0.0,100,0.00,,,0.00,Wunderground v.1.15,2013-02-10 17:22:00,
2013-02-10 09:27:00,39.6,39.6,30.28,North,359,0.0,0.0,100,0.00,,,0.00,Wunderground v.1.15,2013-02-10 17:27:00,
2013-02-10 09:37:00,39.9,39.9,30.28,North,359,0.0,0.0,100,0.00,,,0.00,Wunderground v.1.15,2013-02-10 17:37:00,
2013-02-10 09:42:00,40.1,40.1,30.28,North,359,0.0,0.0,100,0.00,,,0.00,Wunderground v.1.15,2013-02-10 17:42:00,
2013-02-10 09:52:00,40.3,40.3,30.28,North,11,0.0,0.0,100,0.00,,,0.00,Wunderground v.1.15,2013-02-10 17:52:00,
2013-02-10 10:02:00,41.1,41.1,30.28,North,11,0.0,0.0,100,0.00,,,0.00,Wunderground v.1.15,2013-02-10 18:02:00,
2013-02-10 10:07:00,41.6,41.6,30.28,North,11,0.0,0.0,100,0.00,,,0.00,Wunderground v.1.15,2013-02-10 18:07:00,
2013-02-10 10:12:00,42.1,42.1,30.28,North,11,0.0,0.0,100,0.00,,,0.00,Wunderground v.1.15,2013-02-10 18:12:00,
2013-02-10 10:22:00,42.3,42.3,30.29,North,11,0.0,0.0,100,0.00,,,0.00,Wunderground v.1.15,2013-02-10 18:22:00,
2013-02-10 10:27:00,42.2,42.2,30.29,North,11,0.0,0.0,100,0.00,,,0.00,Wunderground v.1.15,2013-02-10 18:27:00,
2013-02-10 10:37:00,41.9,41.9,30.29,North,11,0.0,0.0,100,0.00,,,0.00,Wunderground v.1.15,2013-02-10 18:37:00,
2013-02-10 10:47:00,42.2,42.2,30.29,North,11,0.0,0.0,100,0.00,,,0.00,Wunderground v.1.15,2013-02-10 18:47:00,
2013-02-10 10:52:00,42.2,42.2,30.29,North,11,0.0,0.0,100,0.00,,,0.00,Wunderground v.1.15,2013-02-10 18:52:00,
2013-02-10 11:02:00,42.5,42.5,30.29,North,0,0.0,0.0,100,0.00,,,0.00,Wunderground v.1.15,2013-02-10 19:02:00,
2013-02-10 11:07:00,42.8,42.8,30.29,North,353,0.0,0.0,100,0.00,,,0.00,Wunderground v.1.15,2013-02-10 19:07:00,
2013-02-10 11:12:00,42.8,42.8,30.29,North,353,0.0,0.0,100,0.00,,,0.00,Wunderground v.1.15,2013-02-10 19:12:00,
2013-02-10 11:22:00,43.1,43.1,30.29,NNW,347,0.0,0.0,100,0.00,,,0.00,Wunderground v.1.15,2013-02-10 19:22:00,
2013-02-10 11:32:00,43.1,43.1,30.28,NNW,347,0.0,0.0,100,0.00,,,0.00,Wunderground v.1.15,2013-02-10 19:32:00,
2013-02-10 11:37:00,43.3,43.3,30.28,NNW,339,0.0,0.0,100,0.00,,,0.00,Wunderground v.1.15,2013-02-10 19:37:00,
2013-02-10 11:47:00,43.5,43.5,30.28,NNW,339,0.0,0.0,100,0.00,,,0.00,Wunderground v.1.15,2013-02-10 19:47:00,
2013-02-10 11:52:00,43.9,43.9,30.28,NNW,339,0.0,0.0,100,0.00,,,0.00,Wunderground v.1.15,2013-02-10 19:52:00,
2013-02-10 12:02:00,44.5,44.5,30.27,NNW,339,0.0,0.0,100,0.00,,,0.00,Wunderground v.1.15,2013-02-10 20:02:00,
2013-02-10 12:07:00,45.1,45.1,30.27,NNW,339,0.0,0.0,100,0.00,,,0.00,Wunderground v.1.15,2013-02-10 20:07:00,
2013-02-10 12:17:00,45.5,45.5,30.27,NNW,339,0.0,0.0,100,0.00,,,0.00,Wunderground v.1.15,2013-02-10 20:17:00,
2013-02-10 12:27:00,45.4,45.4,30.27,NNW,339,0.0,0.0,100,0.00,,,0.00,Wunderground v.1.15,2013-02-10 20:27:00,
2013-02-10 12:32:00,45.5,44.7,30.27,NNW,339,0.0,0.0,97,0.00,,,0.00,Wunderground v.1.15,2013-02-10 20:32:00,
2013-02-10 12:42:00,46.1,46.1,30.27,NNW,340,0.0,0.0,100,0.00,,,0.00,Wunderground v.1.15,2013-02-10 20:42:00,
2013-02-10 12:52:00,46.4,35.7,30.26,NNW,332,0.0,0.0,66,0.00,,,0.00,Wunderground v.1.15,2013-02-10 20:52:00,
2013-02-10 13:02:00,46.8,35.3,30.26,NNW,339,0.0,0.0,64,0.00,,,0.00,Wunderground v.1.15,2013-02-10 21:02:00,
2013-02-10 13:07:00,46.7,35.6,30.26,NNW,343,0.0,0.0,65,0.00,,,0.00,Wunderground v.1.15,2013-02-10 21:07:00,
2013-02-10 13:17:00,46.8,35.3,30.26,NNW,344,0.0,0.0,64,0.00,,,0.00,Wunderground v.1.15,2013-02-10 21:17:00,
2013-02-10 13:22:00,47.0,35.4,30.26,NNW,344,0.0,0.0,64,0.00,,,0.00,Wunderground v.1.15,2013-02-10 21:22:00,
2013-02-10 13:32:00,47.0,36.2,30.26,NNW,335,0.0,0.0,66,0.00,,,0.00,Wunderground v.1.15,2013-02-10 21:32:00,
2013-02-10 13:37:00,47.1,35.9,30.26,NNW,335,0.0,0.0,65,0.00,,,0.00,Wunderground v.1.15,2013-02-10 21:37:00,
2013-02-10 13:47:00,47.3,36.1,30.26,NNW,335,0.0,0.0,65,0.00,,,0.00,Wunderground v.1.15,2013-02-10 21:47:00,
2013-02-10 13:57:00,47.1,35.5,30.26,NNW,344,0.0,0.0,64,0.00,,,0.00,Wunderground v.1.15,2013-02-10 21:57:00,
2013-02-10 14:02:00,47.1,35.1,30.25,NNW,346,0.0,0.0,63,0.00,,,0.00,Wunderground v.1.15,2013-02-10 22:02:00,
2013-02-10 14:07:00,47.0,34.6,30.25,NNW,346,0.0,0.0,62,0.00,,,0.00,Wunderground v.1.15,2013-02-10 22:07:00,
2013-02-10 14:17:00,47.0,35.0,30.25,NNW,346,0.0,0.0,63,0.00,,,0.00,Wunderground v.1.15,2013-02-10 22:17:00,
2013-02-10 14:22:00,47.0,35.4,30.25,NNW,340,0.0,0.0,64,0.00,,,0.00,Wunderground v.1.15,2013-02-10 22:22:00,
2013-02-10 14:32:00,46.8,35.3,30.25,North,354,0.0,0.0,64,0.00,,,0.00,Wunderground v.1.15,2013-02-10 22:32:00,
2013-02-10 14:37:00,46.7,35.2,30.25,North,356,0.0,0.0,64,0.00,,,0.00,Wunderground v.1.15,2013-02-10 22:37:00,
2013-02-10 14:47:00,47.0,35.4,30.25,North,359,0.0,0.0,64,0.00,,,0.00,Wunderground v.1.15,2013-02-10 22:47:00,
2013-02-10 14:57:00,46.8,35.3,30.25,NW,325,0.0,0.0,64,0.00,,,0.00,Wunderground v.1.15,2013-02-10 22:57:00,
2013-02-10 15:02:00,46.8,35.3,30.25,NNW,335,0.0,0.0,64,0.00,,,0.00,Wunderground v.1.15,2013-02-10 23:02:00,
2013-02-10 15:07:00,46.8,35.6,30.25,NNW,343,0.0,0.0,65,0.00,,,0.00,Wunderground v.1.15,2013-02-10 23:07:00,
2013-02-10 15:17:00,46.7,35.6,30.25,North,0,0.0,0.0,65,0.00,,,0.00,Wunderground v.1.15,2013-02-10 23:17:00,
2013-02-10 15:22:00,46.7,35.6,30.25,North,0,0.0,0.0,65,0.00,,,0.00,Wunderground v.1.15,2013-02-10 23:22:00,
2013-02-10 15:32:00,47.0,35.0,30.25,North,0,0.0,0.0,63,0.00,,,0.00,Wunderground v.1.15,2013-02-10 23:32:00,
2013-02-10 15:42:00,46.8,35.3,30.25,NNW,339,0.0,0.0,64,0.00,,,0.00,Wunderground v.1.15,2013-02-10 23:42:00,
2013-02-10 15:47:00,46.8,35.6,30.25,NNW,339,0.0,0.0,65,0.00,,,0.00,Wunderground v.1.15,2013-02-10 23:47:00,
2013-02-10 15:57:00,46.5,35.7,30.25,NW,308,0.0,0.0,66,0.00,,,0.00,Wunderground v.1.15,2013-02-10 23:57:00,
2013-02-10 16:02:00,46.2,35.5,30.26,NW,325,0.0,1.0,66,0.00,,,0.00,Wunderground v.1.15,2013-02-11 00:02:00,
2013-02-10 16:07:00,46.2,35.5,30.26,NW,306,0.0,1.0,66,0.00,,,0.00,Wunderground v.1.15,2013-02-11 00:07:00,
2013-02-10 16:17:00,46.4,35.7,30.25,NW,308,0.0,0.0,66,0.00,,,0.00,Wunderground v.1.15,2013-02-11 00:17:00,
2013-02-10 16:22:00,46.5,35.7,30.25,NW,308,0.0,0.0,66,0.00,,,0.00,Wunderground v.1.15,2013-02-11 00:22:00,
2013-02-10 16:32:00,46.5,35.7,30.26,NW,308,0.0,0.0,66,0.00,,,0.00,Wunderground v.1.15,2013-02-11 00:32:00,
2013-02-10 16:37:00,46.5,35.4,30.26,NW,308,0.0,0.0,65,0.00,,,0.00,Wunderground v.1.15,2013-02-11 00:37:00,
2013-02-10 16:47:00,46.5,36.1,30.25,NW,308,0.0,0.0,67,0.00,,,0.00,Wunderground v.1.15,2013-02-11 00:47:00,
2013-02-10 16:57:00,46.1,36.1,30.25,NW,308,0.0,0.0,68,0.00,,,0.00,Wunderground v.1.15,2013-02-11 00:57:00,
2013-02-10 17:02:00,46.1,36.1,30.25,NW,308,0.0,0.0,68,0.00,,,0.00,Wunderground v.1.15,2013-02-11 01:02:00,
2013-02-10 17:07:00,46.1,36.1,30.25,NW,308,0.0,0.0,68,0.00,,,0.00,Wunderground v.1.15,2013-02-11 01:07:00,
2013-02-10 17:17:00,46.2,36.2,30.25,NW,308,0.0,0.0,68,0.00,,,0.00,Wunderground v.1.15,2013-02-11 01:17:00,
2013-02-10 17:22:00,46.2,36.2,30.25,NW,308,0.0,0.0,68,0.00,,,0.00,Wunderground v.1.15,2013-02-11 01:22:00,
2013-02-10 17:32:00,46.2,35.5,30.25,NW,308,0.0,0.0,66,0.00,,,0.00,Wunderground v.1.15,2013-02-11 01:32:00,
2013-02-10 17:37:00,46.2,35.5,30.25,NW,308,0.0,0.0,66,0.00,,,0.00,Wunderground v.1.15,2013-02-11 01:37:00,
2013-02-10 17:47:00,46.2,35.5,30.25,NW,308,0.0,0.0,66,0.00,,,0.00,Wunderground v.1.15,2013-02-11 01:47:00,
2013-02-10 17:57:00,46.4,35.7,30.25,NW,308,0.0,0.0,66,0.00,,,0.00,Wunderground v.1.15,2013-02-11 01:57:00,
2013-02-10 18:02:00,46.4,35.7,30.25,NW,308,0.0,0.0,66,0.00,,,0.00,Wunderground v.1.15,2013-02-11 02:02:00,
2013-02-10 18:07:00,46.2,35.8,30.25,NW,308,0.0,0.0,67,0.00,,,0.00,Wunderground v.1.15,2013-02-11 02:07:00,
2013-02-10 18:17:00,46.2,36.2,30.25,NW,308,0.0,0.0,68,0.00,,,0.00,Wunderground v.1.15,2013-02-11 02:17:00,
2013-02-10 18:22:00,46.1,36.5,30.25,NW,308,0.0,0.0,69,0.00,,,0.00,Wunderground v.1.15,2013-02-11 02:22:00,
2013-02-10 18:32:00,46.0,36.8,30.25,NW,308,0.0,0.0,70,0.00,,,0.00,Wunderground v.1.15,2013-02-11 02:32:00,
2013-02-10 18:37:00,46.0,36.8,30.25,NW,308,0.0,0.0,70,0.00,,,0.00,Wunderground v.1.15,2013-02-11 02:37:00,
2013-02-10 18:47:00,46.0,36.8,30.26,NW,308,0.0,0.0,70,0.00,,,0.00,Wunderground v.1.15,2013-02-11 02:47:00,
2013-02-10 18:57:00,46.0,36.8,30.26,NW,308,0.0,0.0,70,0.00,,,0.00,Wunderground v.1.15,2013-02-11 02:57:00,
2013-02-10 19:02:00,45.8,36.9,30.26,NW,308,0.0,0.0,71,0.00,,,0.00,Wunderground v.1.15,2013-02-11 03:02:00,
2013-02-10 19:07:00,45.7,36.8,30.26,NW,308,0.0,0.0,71,0.00,,,0.00,Wunderground v.1.15,2013-02-11 03:07:00,
2013-02-10 19:17:00,45.5,37.0,30.26,NW,308,0.0,0.0,72,0.00,,,0.00,Wunderground v.1.15,2013-02-11 03:17:00,
2013-02-10 19:22:00,45.4,36.9,30.26,NW,308,0.0,0.0,72,0.00,,,0.00,Wunderground v.1.15,2013-02-11 03:22:00,
2013-02-10 19:32:00,45.2,37.1,30.26,NW,308,0.0,0.0,73,0.00,,,0.00,Wunderground v.1.15,2013-02-11 03:32:00,
2013-02-10 19:37:00,45.2,37.1,30.26,NW,308,0.0,0.0,73,0.00,,,0.00,Wunderground v.1.15,2013-02-11 03:37:00,
2013-02-10 19:47:00,45.5,37.0,30.26,NW,308,0.0,0.0,72,0.00,,,0.00,Wunderground v.1.15,2013-02-11 03:47:00,
2013-02-10 19:57:00,45.5,37.0,30.26,NW,308,0.0,0.0,72,0.00,,,0.00,Wunderground v.1.15,2013-02-11 03:57:00,
2013-02-10 20:02:00,45.5,36.6,30.26,NW,308,0.0,0.0,71,0.00,,,0.00,Wunderground v.1.15,2013-02-11 04:02:00,
2013-02-10 20:07:00,45.5,37.0,30.26,NW,308,0.0,0.0,72,0.00,,,0.00,Wunderground v.1.15,2013-02-11 04:07:00,
2013-02-10 20:17:00,45.4,37.2,30.26,NW,308,0.0,0.0,73,0.00,,,0.00,Wunderground v.1.15,2013-02-11 04:17:00,
2013-02-10 20:22:00,45.2,36.7,30.26,NW,308,0.0,0.0,72,0.00,,,0.00,Wunderground v.1.15,2013-02-11 04:22:00,
2013-02-10 20:32:00,45.4,36.5,30.26,NW,308,0.0,0.0,71,0.00,,,0.00,Wunderground v.1.15,2013-02-11 04:32:00,
2013-02-10 20:37:00,45.4,36.9,30.26,NW,308,0.0,0.0,72,0.00,,,0.00,Wunderground v.1.15,2013-02-11 04:37:00,
2013-02-10 20:47:00,45.2,36.7,30.25,NW,308,0.0,0.0,72,0.00,,,0.00,Wunderground v.1.15,2013-02-11 04:47:00,
2013-02-10 20:52:00,44.8,37.0,30.25,NW,308,0.0,0.0,74,0.00,,,0.00,Wunderground v.1.15,2013-02-11 04:52:00,
2013-02-10 21:02:00,44.9,37.1,30.25,NW,308,0.0,0.0,74,0.00,,,0.00,Wunderground v.1.15,2013-02-11 05:02:00,
2013-02-10 21:12:00,45.1,38.0,30.25,NW,308,0.0,0.0,76,0.00,,,0.00,Wunderground v.1.15,2013-02-11 05:12:00,
2013-02-10 21:22:00,44.9,37.5,30.27,NW,308,0.0,0.0,75,0.00,,,0.00,Wunderground v.1.15,2013-02-11 05:22:00,
2013-02-10 21:27:00,44.9,37.1,30.27,NW,308,0.0,0.0,74,0.00,,,0.00,Wunderground v.1.15,2013-02-11 05:27:00,
2013-02-10 21:37:00,44.6,37.5,30.26,NW,308,0.0,0.0,76,0.00,,,0.00,Wunderground v.1.15,2013-02-11 05:37:00,
2013-02-10 21:47:00,44.3,37.5,30.25,NW,308,0.0,0.0,77,0.00,,,0.00,Wunderground v.1.15,2013-02-11 05:47:00,
2013-02-10 21:52:00,44.3,37.9,30.25,NW,308,0.0,0.0,78,0.00,,,0.00,Wunderground v.1.15,2013-02-11 05:52:00,
2013-02-10 22:02:00,44.3,38.8,30.25,NW,308,0.0,0.0,81,0.00,,,0.00,Wunderground v.1.15,2013-02-11 06:02:00,
2013-02-10 22:07:00,44.3,39.5,30.25,NW,308,0.0,0.0,83,0.00,,,0.00,Wunderground v.1.15,2013-02-11 06:07:00,
2013-02-10 22:17:00,44.2,39.4,30.25,NW,308,0.0,0.0,83,0.00,,,0.00,Wunderground v.1.15,2013-02-11 06:17:00,
2013-02-10 22:22:00,44.1,39.3,30.25,NW,308,0.0,0.0,83,0.00,,,0.00,Wunderground v.1.15,2013-02-11 06:22:00,
2013-02-10 22:32:00,43.9,37.8,30.25,NW,308,0.0,0.0,79,0.00,,,0.00,Wunderground v.1.15,2013-02-11 06:32:00,
2013-02-10 22:42:00,43.9,37.8,30.25,NW,308,0.0,0.0,79,0.00,,,0.00,Wunderground v.1.15,2013-02-11 06:42:00,
2013-02-10 22:47:00,43.9,37.5,30.25,NW,308,0.0,0.0,78,0.00,,,0.00,Wunderground v.1.15,2013-02-11 06:47:00,
2013-02-10 22:57:00,43.9,38.1,30.25,NW,308,0.0,0.0,80,0.00,,,0.00,Wunderground v.1.15,2013-02-11 06:57:00,
2013-02-10 23:02:00,43.9,38.4,30.25,NW,308,0.0,0.0,81,0.00,,,0.00,Wunderground v.1.15,2013-02-11 07:02:00,
2013-02-10 23:07:00,43.8,38.3,30.25,NW,308,0.0,0.0,81,0.00,,,0.00,Wunderground v.1.15,2013-02-11 07:07:00,
2013-02-10 23:17:00,43.6,38.5,30.25,NW,308,0.0,0.0,82,0.00,,,0.00,Wunderground v.1.15,2013-02-11 07:17:00,
2013-02-10 23:27:00,43.6,37.8,30.25,NW,308,0.0,0.0,80,0.00,,,0.00,Wunderground v.1.15,2013-02-11 07:27:00,
2013-02-10 23:32:00,43.6,38.5,30.25,NW,308,0.0,0.0,82,0.00,,,0.00,Wunderground v.1.15,2013-02-11 07:32:00,
2013-02-10 23:42:00,43.6,40.6,30.25,NW,308,0.0,0.0,89,0.00,,,0.00,Wunderground v.1.15,2013-02-11 07:42:00,
2013-02-10 23:47:00,43.6,41.1,30.25,NW,308,0.0,0.0,91,0.00,,,0.00,Wunderground v.1.15,2013-02-11 07:47:00,
2013-02-10 23:57:00,43.3,40.3,30.25,NW,308,0.0,0.0,89,0.00,,,0.00,Wunderground v.1.15,2013-02-11 07:57:00,